Home > Weather > Al Ain > Past weeks

Flag for United Arab Emirates Past Weather in Al Ain, Abu Dhabi, United Arab Emirates — Yesterday and Last 2 Weeks

Now
95 °F

Clear.


Feels Like: 90 °F
Forecast: 78 / 102 °F
Wind: 6 mph from Northwest

Location: Al Ain International Airport

Current Time: May 31, 2016 at 10:14:42 PM

Latest Report: May 31, 2016 at 9:00 PM


Visibility: 10 mi

Pressure: 29.74 "Hg

Humidity: 11%

Dew Point: 32 °F

Location of Al AinLocation

Past Weather in Al Ain — Graph

°F

Al Ain Temperature Yesterday

Maximum temperature yesterday: 113 °F (at 4:00 PM)
Minimum temperature yesterday: 88 °F (at 5:00 AM)
Average temperature yesterday: 98 °F

High & Low Weather Summary for the Past Weeks

 TemperatureHumidityPressure
High113 °F (May 30, 4:00 PM)89% (May 26, 6:00 AM)29.77 "Hg (May 26, 6:00 AM)
Low72 °F (May 24, 4:00 AM)6% (May 30, 4:00 PM)29.56 "Hg (May 20, 5:00 PM)
Average93 °F30%29.69 "Hg
* Reported May 16 8:00 PM — May 31 8:00 PM, Al Ain, Weather by CustomWeather, © 2016

Note: Actual official high and low records may vary slightly from our data, if they occured in-between our weather recording intervals... More about our weather records

Advertising

Al Ain Weather History for the Previous 24 Hours

Scroll right to see more
 ConditionsComfort  
Time TempWeatherWind HumidityBarometerVisibility
8:00 PM
Tue, May 31
97 °FClear.10 mph9%29.74 "Hg10 mi
7:00 PM100 °FSunny.20 mph8%29.71 "Hg10 mi
6:00 PM104 °FClear.23 mph7%29.68 "Hg4 mi
5:00 PM106 °FClear.24 mph9%29.68 "Hg4 mi
4:00 PM109 °FClear.21 mph9%29.65 "Hg5 mi
3:00 PM109 °FClear.23 mph10%29.65 "Hg4 mi
2:00 PM111 °FClear.20 mph10%29.65 "Hg4 mi
1:00 PM108 °FSunny.16 mph13%29.68 "Hg10 mi
12:00 PM108 °FPassing clouds.10 mph13%29.71 "HgN/A
11:00 AM102 °FPassing clouds.9 mph17%29.71 "HgN/A
10:00 AM100 °FPassing clouds.7 mph18%29.71 "HgN/A
9:00 AM97 °FPassing clouds.6 mph22%29.71 "HgN/A
8:00 AM91 °FSunny.6 mph23%29.68 "Hg10 mi
7:00 AM88 °FSunny.5 mph22%29.68 "Hg10 mi
6:00 AM86 °FSunny.6 mph25%29.65 "Hg10 mi
5:00 AM88 °FClear.5 mph24%29.65 "Hg10 mi
4:00 AM88 °FClear.6 mph24%29.62 "Hg10 mi
3:00 AM88 °FClear.2 mph24%29.62 "Hg10 mi
2:00 AM91 °FPassing clouds.3 mph23%29.65 "HgN/A
1:00 AM88 °FClear.2 mph25%29.65 "Hg10 mi
12:00 AM90 °FPassing clouds.3 mph24%29.65 "HgN/A
11:00 PM
Mon, May 30
95 °FClear.5 mph22%29.65 "Hg10 mi
10:00 PM95 °FClear.3 mph19%29.65 "Hg10 mi
Weather by CustomWeather, © 2016

See weather overviewHow to use our weather pages